THOR 5

Last updated on Oct. 26, 2020, 5:52 a.m. UTC

1 32487U 08006A   20299.91232178 -.00000021  00000-0  00000-0 0  9997
2 32487   0.0097 217.1284 0002453 356.3459 148.9727  1.00272056 46647
UTC
Height (km)
Latitude
Longitude
Inclination
Orbital Period
UTC large
Height (km)
Speed (km/s)
/
Latitude / Longitude
Inclination (degrees)
Orbital Period (minutes)
Azimuth
Elevation
Range (km)
Doppler Factor
iOS Compass Heading
iOS Angle

Next 30 passes for location: Hong Kong

Rise time Rise Azimuth (degrees) Set time Set Azimuth (degrees) Duration Max altitude (degrees)

No matching passes for this satellites